Showing default

RADUGA 9, 12618

Orbit data source: Space-Track

RADUGA 9, 12618 is a payload satellite owned by GUKOS (CIS) in GEO that was launched on Thu, 30 Jul 1981 UTC via a PROTON-K/DM launch vehicle from the Tyuratam Missile And Space Complex (TTMTR). Payload-class satellites include a variety of spacecraft equipped with specific instruments for various scientific and technological missions. These include communications satellites like Starlink; space stations such as the ISS; scientific satellites like the Hubble; Earth observation satellites from companies like Planet Labs, Umbra, and HawkEye 360; GPS; miniature CubeSats for education and research; and military/defense satellites.

Not visible in the next 10 days
Identifier
12618, 1981-069A
Orbit
GEO
Country
Flag of CISCIS
Related business
Manufacturer
NPO PM
Mission
Non-operational spacecraft
Bus & Motor
RADUGA, Unknown motor
Mass
1,965 kg wet, ~1,800 kg dry
Launch date (UTC)
1981-07-30 (45 years ago)
Launch vehicle
PROTON-K/DM
Launch site
Tyuratam Missile And Space Complex (TTMTR)
Object type
Payload
Rocket body
Debris
Shape & HBR
STEP CYL + 2 PAN, 1.1 m
Radar Cross Section
Large (>1 m²)

Expand to show TLE details & history
Last TLE update: 1 day ago

TLE from 1 day ago
0 RADUGA 9
1 12618U 81069A   26263.78514943  .00000128  00000-0  00000-0 0  9993
2 12618   6.3725 292.7948 0001635 246.4830 147.9521  1.00218869 48305
Epoch: 2026-09-20T18:50Z
TLE epoch observation values (Epoch: 2026-09-20T18:50:36.910Z)
Latitude
3.60288°
Longitude
44.74728°
Altitude
35,806.425 km
Speed
3.074 km/s
True Right ascension
21h 48m 18s
True Declination
3° 35' 57"
Sunlit
Object was in daylight at epoch
Visualization orbit readout
Latitude
Unknown
Longitude
Unknown
Altitude
Unknown
Speed
Unknown
Apparent Right ascension
Unknown
Apparent Declination
Unknown
Sunlit
N/A
Visualization observer readout
Local Sidereal Time
17:13:42
Azimuth
Unknown
Elevation
Unknown
Doppler factor
Unknown
Orbital elements
Apogee altitude
35,809.383 km
Perigee altitude
35,795.59 km
Semi-major axis
42,180.623 km
Eccentricity
0.00016
Inclination
6.3725°
RAAN
292.7948°
Arg. of periapsis
246.483°
True anomaly
147.96204°
Mean anomaly
147.9521°
Eccentric anomaly
147.95707°
Mean motion
0.25054 °/min
Orbital period
1,436.91 mins
BSTAR
0
Loading maneuver chart data...
Computing Atmospheric mass density...
Loading historical data...
Loading historical data...
Loading historical data...
Loading historical data...
Loading historical data...
Loading historical data...
Loading historical data...

Documentation

Showing up to 5 results
|